Time,TemperatureF,DewpointF,PressureIn,WindDirection,WindDirectionDegrees,WindSpeedMPH,WindSpeedGustMPH,Humidity,HourlyPrecipIn,Conditions,Clouds,dailyrainin,SolarRadiationWatts/m^2,SoftwareType,DateUTC
2013-11-17 00:03:00,52.7,47.4,29.99,SSW,211,0.1,1.1,82,0.00,RA,,0.00,0.0,WeatherDisplay:10.37,2013-11-17 08:03:00,
2013-11-17 00:08:00,52.7,47.4,29.99,SSW,211,0.0,0.0,82,0.00,CLR,,0.00,0.0,WeatherDisplay:10.37,2013-11-17 08:08:00,
2013-11-17 00:13:00,52.7,47.4,29.99,SSW,211,0.0,0.0,82,0.00,CLR,,0.00,0.0,WeatherDisplay:10.37,2013-11-17 08:13:00,
2013-11-17 00:18:00,52.7,47.7,29.99,SSW,211,0.0,0.0,83,0.00,CLR,,0.00,0.0,WeatherDisplay:10.37,2013-11-17 08:18:00,
2013-11-17 00:23:00,52.7,47.7,29.99,SSW,211,0.0,0.0,83,0.00,CLR,,0.00,0.0,WeatherDisplay:10.37,2013-11-17 08:23:00,
2013-11-17 00:28:00,52.6,47.6,29.99,SSW,211,0.0,1.1,83,0.00,CLR,,0.00,0.0,WeatherDisplay:10.37,2013-11-17 08:28:00,
2013-11-17 00:33:00,52.6,47.6,29.99,SSW,211,0.0,0.0,83,0.00,CLR,,0.00,0.0,WeatherDisplay:10.37,2013-11-17 08:33:00,
2013-11-17 00:38:00,52.6,47.6,30.00,SSW,211,0.0,0.0,83,0.00,CLR,,0.00,0.0,WeatherDisplay:10.37,2013-11-17 08:38:00,
2013-11-17 00:43:00,52.6,47.6,29.99,SSW,211,0.0,0.0,83,0.00,CLR,,0.00,0.0,WeatherDisplay:10.37,2013-11-17 08:43:00,
2013-11-17 00:48:00,52.6,47.6,29.99,SSW,211,0.0,0.0,83,0.00,CLR,,0.00,0.0,WeatherDisplay:10.37,2013-11-17 08:48:00,
2013-11-17 00:53:00,52.5,47.5,29.99,SSW,211,0.0,0.0,83,0.00,CLR,,0.00,0.0,WeatherDisplay:10.37,2013-11-17 08:53:00,
2013-11-17 00:58:00,52.5,47.5,29.99,SSW,211,0.0,0.0,83,0.00,CLR,,0.00,0.0,WeatherDisplay:10.37,2013-11-17 08:58:00,
2013-11-17 01:03:00,52.4,47.7,29.99,SSW,211,0.0,0.0,84,0.00,CLR,,0.00,0.0,WeatherDisplay:10.37,2013-11-17 09:03:00,
2013-11-17 01:08:00,52.4,47.4,29.99,SSW,211,0.2,1.1,83,0.00,CLR,,0.00,0.0,WeatherDisplay:10.37,2013-11-17 09:08:00,
2013-11-17 01:13:00,52.4,47.4,30.00,SSW,211,0.2,1.0,83,0.00,CLR,,0.00,0.0,WeatherDisplay:10.37,2013-11-17 09:13:00,
2013-11-17 01:18:00,52.4,47.7,29.99,SSW,211,0.0,0.0,84,0.00,CLR,,0.00,0.0,WeatherDisplay:10.37,2013-11-17 09:18:00,
2013-11-17 01:23:00,52.4,47.7,30.00,SSW,211,0.1,0.0,84,0.00,CLR,,0.00,0.0,WeatherDisplay:10.37,2013-11-17 09:23:00,
2013-11-17 01:28:00,52.3,47.6,30.00,SSW,211,0.0,1.1,84,0.00,CLR,,0.00,0.0,WeatherDisplay:10.37,2013-11-17 09:28:00,
2013-11-17 01:33:00,52.3,47.6,30.00,SSW,211,0.0,0.0,84,0.00,CLR,,0.00,0.0,WeatherDisplay:10.37,2013-11-17 09:33:00,
2013-11-17 01:38:00,52.3,47.3,30.00,SSW,211,0.0,0.0,83,0.00,CLR,,0.00,0.0,WeatherDisplay:10.37,2013-11-17 09:38:00,
2013-11-17 01:43:00,52.3,47.3,30.00,SSW,211,0.0,1.1,83,0.00,CLR,,0.00,0.0,WeatherDisplay:10.37,2013-11-17 09:43:00,
2013-11-17 01:48:00,52.3,47.6,30.00,SSW,211,0.0,0.0,84,0.00,CLR,,0.00,0.0,WeatherDisplay:10.37,2013-11-17 09:48:00,
2013-11-17 01:53:00,52.3,47.3,30.00,SSW,211,0.0,0.0,83,0.00,CLR,,0.00,0.0,WeatherDisplay:10.37,2013-11-17 09:53:00,
2013-11-17 01:58:00,52.3,47.3,30.00,SSW,211,0.0,0.0,83,0.00,CLR,,0.00,0.0,WeatherDisplay:10.37,2013-11-17 09:58:00,
2013-11-17 02:03:00,52.3,47.6,30.00,SSW,211,0.0,0.0,84,0.00,CLR,,0.00,0.0,WeatherDisplay:10.37,2013-11-17 10:03:00,
2013-11-17 02:08:00,52.3,47.3,30.00,SSW,211,0.0,0.0,83,0.00,CLR,,0.00,0.0,WeatherDisplay:10.37,2013-11-17 10:08:00,
2013-11-17 02:13:00,52.3,47.3,30.00,SSW,211,0.0,0.0,83,0.00,CLR,,0.00,0.0,WeatherDisplay:10.37,2013-11-17 10:13:00,
2013-11-17 02:18:00,52.3,47.3,30.00,SSW,211,0.0,0.0,83,0.00,CLR,,0.00,0.0,WeatherDisplay:10.37,2013-11-17 10:18:00,
2013-11-17 02:23:00,52.3,47.6,30.00,SSW,211,0.0,1.1,84,0.00,CLR,,0.00,0.0,WeatherDisplay:10.37,2013-11-17 10:23:00,
2013-11-17 02:28:00,52.3,47.6,30.00,SSW,211,0.0,0.0,84,0.00,CLR,,0.00,0.0,WeatherDisplay:10.37,2013-11-17 10:28:00,
2013-11-17 02:33:00,52.3,47.6,30.00,SSW,211,0.0,0.0,84,0.00,CLR,,0.00,0.0,WeatherDisplay:10.37,2013-11-17 10:33:00,
2013-11-17 02:38:00,52.2,47.5,30.00,SSW,211,0.0,0.0,84,0.00,CLR,,0.00,0.0,WeatherDisplay:10.37,2013-11-17 10:38:00,
2013-11-17 02:43:00,52.2,47.5,30.00,SSW,211,0.0,0.0,84,0.00,CLR,,0.00,0.0,WeatherDisplay:10.37,2013-11-17 10:43:00,
2013-11-17 02:48:00,52.2,47.5,30.00,SSW,211,0.0,0.0,84,0.00,CLR,,0.00,0.0,WeatherDisplay:10.37,2013-11-17 10:48:00,
2013-11-17 02:53:00,52.2,47.5,30.00,SSW,211,0.0,0.0,84,0.00,CLR,,0.00,0.0,WeatherDisplay:10.37,2013-11-17 10:53:00,
2013-11-17 02:58:00,52.1,47.4,30.00,SSW,211,0.0,0.0,84,0.00,CLR,,0.00,0.0,WeatherDisplay:10.37,2013-11-17 10:58:00,
2013-11-17 03:03:00,52.1,47.4,30.00,SSW,211,0.0,0.0,84,0.00,CLR,,0.00,0.0,WeatherDisplay:10.37,2013-11-17 11:03:00,
2013-11-17 03:08:00,52.1,47.7,30.00,SSW,211,0.0,0.0,85,0.00,CLR,,0.00,0.0,WeatherDisplay:10.37,2013-11-17 11:08:00,
2013-11-17 03:13:00,52.1,47.4,30.00,SSW,211,0.0,0.0,84,0.00,CLR,,0.00,0.0,WeatherDisplay:10.37,2013-11-17 11:13:00,
2013-11-17 03:18:00,52.0,47.3,30.00,SSW,211,0.0,0.0,84,0.00,CLR,,0.00,0.0,WeatherDisplay:10.37,2013-11-17 11:18:00,
2013-11-17 03:23:00,52.0,47.3,30.00,SSW,211,0.0,0.0,84,0.00,CLR,,0.00,0.0,WeatherDisplay:10.37,2013-11-17 11:23:00,
2013-11-17 03:28:00,52.0,47.3,30.00,SSW,211,0.0,0.0,84,0.00,CLR,,0.00,0.0,WeatherDisplay:10.37,2013-11-17 11:28:00,
2013-11-17 03:33:00,52.0,47.3,30.00,SSW,211,0.0,0.0,84,0.00,CLR,,0.00,0.0,WeatherDisplay:10.37,2013-11-17 11:33:00,
2013-11-17 03:38:00,51.9,47.2,30.00,SSW,211,0.0,0.0,84,0.00,CLR,,0.00,0.0,WeatherDisplay:10.37,2013-11-17 11:38:00,
2013-11-17 03:43:00,51.9,46.9,30.00,SSW,211,0.0,0.0,83,0.00,CLR,,0.00,0.0,WeatherDisplay:10.37,2013-11-17 11:43:00,
2013-11-17 03:49:00,51.9,46.9,30.00,SSW,211,0.0,0.0,83,0.00,CLR,,0.00,0.0,WeatherDisplay:10.37,2013-11-17 11:49:00,
2013-11-17 03:54:00,51.9,46.9,30.00,SSW,211,0.0,0.0,83,0.00,CLR,,0.00,0.0,WeatherDisplay:10.37,2013-11-17 11:54:00,
2013-11-17 03:59:00,51.8,46.8,30.00,SSW,211,0.0,0.0,83,0.00,CLR,,0.00,0.0,WeatherDisplay:10.37,2013-11-17 11:59:00,
2013-11-17 04:04:00,51.8,46.8,30.00,SSW,211,0.0,0.0,83,0.00,CLR,,0.00,0.0,WeatherDisplay:10.37,2013-11-17 12:04:00,
2013-11-17 04:09:00,51.7,46.7,30.00,SSW,211,0.0,0.0,83,0.00,CLR,,0.00,0.0,WeatherDisplay:10.37,2013-11-17 12:09:00,
2013-11-17 04:14:00,51.7,47.0,30.00,SSW,211,0.0,0.0,84,0.00,CLR,,0.00,0.0,WeatherDisplay:10.37,2013-11-17 12:14:00,
2013-11-17 04:19:00,51.6,46.6,30.00,SSW,211,0.0,0.0,83,0.00,CLR,,0.00,0.0,WeatherDisplay:10.37,2013-11-17 12:19:00,
2013-11-17 04:24:00,51.5,46.8,30.00,SSW,211,0.0,0.0,84,0.00,CLR,,0.00,0.0,WeatherDisplay:10.37,2013-11-17 12:24:00,
2013-11-17 04:29:00,51.3,46.3,30.00,SSW,211,0.0,0.0,83,0.00,CLR,,0.00,0.0,WeatherDisplay:10.37,2013-11-17 12:29:00,
2013-11-17 04:34:00,51.1,46.4,30.01,SSW,211,0.0,0.0,84,0.00,CLR,,0.00,0.0,WeatherDisplay:10.37,2013-11-17 12:34:00,
2013-11-17 04:39:00,50.8,45.8,30.00,SSW,211,0.0,0.0,83,0.00,CLR,,0.00,0.0,WeatherDisplay:10.37,2013-11-17 12:39:00,
2013-11-17 04:44:00,50.4,45.4,30.00,SSW,211,0.0,0.0,83,0.00,CLR,,0.00,0.0,WeatherDisplay:10.37,2013-11-17 12:44:00,
2013-11-17 04:49:00,50.1,45.1,30.01,SSW,211,0.0,0.0,83,0.00,CLR,,0.00,0.0,WeatherDisplay:10.37,2013-11-17 12:49:00,
2013-11-17 04:54:00,49.8,44.8,30.01,SSW,211,0.0,0.0,83,0.00,CLR,,0.00,0.0,WeatherDisplay:10.37,2013-11-17 12:54:00,
2013-11-17 04:59:00,49.3,44.7,30.00,SSW,211,0.0,0.0,84,0.00,CLR,,0.00,0.0,WeatherDisplay:10.37,2013-11-17 12:59:00,
2013-11-17 05:04:00,48.9,44.3,30.01,SSW,211,0.0,0.0,84,0.00,CLR,,0.00,0.0,WeatherDisplay:10.37,2013-11-17 13:04:00,
2013-11-17 05:09:00,48.6,44.6,30.01,SSW,211,0.0,0.0,86,0.00,CLR,,0.00,0.0,WeatherDisplay:10.37,2013-11-17 13:09:00,
2013-11-17 05:14:00,48.3,44.6,30.01,SSW,211,0.0,0.0,87,0.00,CLR,,0.00,0.0,WeatherDisplay:10.37,2013-11-17 13:14:00,
2013-11-17 05:19:00,48.1,44.4,30.01,SSW,211,0.0,0.0,87,0.00,CLR,,0.00,0.0,WeatherDisplay:10.37,2013-11-17 13:19:00,
2013-11-17 05:24:00,47.7,44.0,30.01,SSW,211,0.4,1.1,87,0.00,CLR,,0.00,0.0,WeatherDisplay:10.37,2013-11-17 13:24:00,
2013-11-17 05:29:00,47.5,43.8,30.01,SSW,211,0.0,0.0,87,0.00,CLR,,0.00,0.0,WeatherDisplay:10.37,2013-11-17 13:29:00,
2013-11-17 05:34:00,47.3,43.9,30.01,SSW,211,0.0,0.0,88,0.00,CLR,,0.00,0.0,WeatherDisplay:10.37,2013-11-17 13:34:00,
2013-11-17 05:39:00,47.2,43.8,30.01,SSW,211,0.0,0.0,88,0.00,CLR,,0.00,0.0,WeatherDisplay:10.37,2013-11-17 13:39:00,
2013-11-17 05:44:00,47.1,43.7,30.02,SSW,211,0.0,0.0,88,0.00,CLR,,0.00,0.0,WeatherDisplay:10.37,2013-11-17 13:44:00,
2013-11-17 05:49:00,46.9,43.5,30.02,SSW,211,0.0,0.0,88,0.00,CLR,,0.00,0.0,WeatherDisplay:10.37,2013-11-17 13:49:00,
2013-11-17 05:54:00,46.7,43.6,30.02,SSW,211,0.0,0.0,89,0.00,CLR,,0.00,0.0,WeatherDisplay:10.37,2013-11-17 13:54:00,
2013-11-17 05:59:00,46.5,43.1,30.02,SSW,211,0.0,0.0,88,0.00,CLR,,0.00,0.0,WeatherDisplay:10.37,2013-11-17 13:59:00,
2013-11-17 06:04:00,46.3,42.9,30.02,SSW,211,0.0,0.0,88,0.00,CLR,,0.00,0.0,WeatherDisplay:10.37,2013-11-17 14:04:00,
2013-11-17 06:09:00,46.0,42.6,30.02,SSW,211,0.0,0.0,88,0.00,CLR,,0.00,0.0,WeatherDisplay:10.37,2013-11-17 14:09:00,
2013-11-17 06:14:00,45.8,42.7,30.03,SSW,211,0.0,0.0,89,0.00,CLR,,0.00,0.0,WeatherDisplay:10.37,2013-11-17 14:14:00,
2013-11-17 06:19:00,45.6,42.5,30.03,SSW,211,0.0,0.0,89,0.00,CLR,,0.00,0.0,WeatherDisplay:10.37,2013-11-17 14:19:00,
2013-11-17 06:24:00,45.4,42.3,30.03,SSW,211,0.0,0.0,89,0.00,CLR,,0.00,0.0,WeatherDisplay:10.37,2013-11-17 14:24:00,
2013-11-17 06:29:00,45.4,42.6,30.03,SSW,211,0.0,0.0,90,0.00,CLR,,0.00,7.0,WeatherDisplay:10.37,2013-11-17 14:29:00,
2013-11-17 06:34:00,45.4,42.6,30.04,SSW,211,0.0,0.0,90,0.00,CLR,,0.00,11.0,WeatherDisplay:10.37,2013-11-17 14:34:00,
2013-11-17 06:39:00,45.5,43.0,30.04,SSW,211,0.0,0.0,91,0.00,CLR,,0.00,16.0,WeatherDisplay:10.37,2013-11-17 14:39:00,
2013-11-17 06:44:00,45.6,43.1,30.04,SSW,211,0.0,0.0,91,0.00,CLR,,0.00,21.0,WeatherDisplay:10.37,2013-11-17 14:44:00,
2013-11-17 06:49:00,45.5,42.7,30.04,SSW,211,0.0,0.0,90,0.00,CLR,,0.00,30.0,WeatherDisplay:10.37,2013-11-17 14:49:00,
2013-11-17 06:54:00,45.5,42.7,30.05,SSW,211,0.0,0.0,90,0.00,CLR,,0.00,40.0,WeatherDisplay:10.37,2013-11-17 14:54:00,
2013-11-17 06:59:00,45.7,43.2,30.05,SSW,211,0.0,0.0,91,0.00,CLR,,0.00,51.0,WeatherDisplay:10.37,2013-11-17 14:59:00,
2013-11-17 07:04:00,46.1,43.6,30.05,SSW,211,0.0,0.0,91,0.00,CLR,,0.00,63.0,WeatherDisplay:10.37,2013-11-17 15:04:00,
2013-11-17 07:09:00,46.7,44.5,30.05,SSW,211,0.0,0.0,92,0.00,CLR,,0.00,77.0,WeatherDisplay:10.37,2013-11-17 15:09:00,
2013-11-17 07:14:00,47.2,44.7,30.06,SSW,211,0.0,0.0,91,0.00,CLR,,0.00,91.0,WeatherDisplay:10.37,2013-11-17 15:14:00,
2013-11-17 07:19:00,48.0,45.8,30.06,SSW,211,0.0,0.0,92,0.00,CLR,,0.00,107.0,WeatherDisplay:10.37,2013-11-17 15:19:00,
2013-11-17 07:24:00,49.0,46.5,30.06,SSW,211,0.0,0.0,91,0.00,CLR,,0.00,120.0,WeatherDisplay:10.37,2013-11-17 15:24:00,
2013-11-17 07:29:00,49.8,47.0,30.06,SSW,211,0.0,0.0,90,0.00,CLR,,0.00,137.0,WeatherDisplay:10.37,2013-11-17 15:29:00,
2013-11-17 07:34:00,51.0,47.6,30.06,SSW,211,0.0,0.0,88,0.00,CLR,,0.00,153.0,WeatherDisplay:10.37,2013-11-17 15:34:00,
2013-11-17 07:39:00,52.1,48.0,30.06,SSW,211,0.0,0.0,86,0.00,CLR,,0.00,171.0,WeatherDisplay:10.37,2013-11-17 15:39:00,
2013-11-17 07:44:00,53.0,48.6,30.07,SSW,211,0.0,0.0,85,0.00,CLR,,0.00,188.0,WeatherDisplay:10.37,2013-11-17 15:44:00,
2013-11-17 07:49:00,54.1,48.7,30.07,SSW,211,0.4,1.0,82,0.00,CLR,,0.00,206.0,WeatherDisplay:10.37,2013-11-17 15:49:00,
2013-11-17 07:54:00,54.8,49.1,30.07,SSW,211,0.1,1.1,81,0.00,CLR,,0.00,223.0,WeatherDisplay:10.37,2013-11-17 15:54:00,
2013-11-17 07:59:00,55.3,48.9,30.07,SSW,211,0.1,2.3,79,0.00,CLR,,0.00,241.0,WeatherDisplay:10.37,2013-11-17 15:59:00,
2013-11-17 08:04:00,55.5,48.4,30.07,SSW,211,0.0,1.1,77,0.00,OVC,,0.00,192.0,WeatherDisplay:10.37,2013-11-17 16:04:00,
2013-11-17 08:09:00,55.8,48.7,30.07,SSW,211,0.5,1.1,77,0.00,OVC,,0.00,276.0,WeatherDisplay:10.37,2013-11-17 16:09:00,
2013-11-17 08:14:00,56.1,49.3,30.07,SSW,211,0.0,0.0,78,0.00,OVC,,0.00,294.0,WeatherDisplay:10.37,2013-11-17 16:14:00,
2013-11-17 08:19:00,56.6,49.1,30.08,SSW,211,0.4,1.1,76,0.00,OVC,,0.00,309.0,WeatherDisplay:10.37,2013-11-17 16:19:00,
2013-11-17 08:24:00,56.9,48.7,30.08,ENE,63,1.0,3.5,74,0.00,OVC,,0.00,330.0,WeatherDisplay:10.37,2013-11-17 16:24:00,
2013-11-17 08:29:00,57.1,48.9,30.08,ENE,63,0.1,2.3,74,0.00,OVC,,0.00,346.0,WeatherDisplay:10.37,2013-11-17 16:29:00,
2013-11-17 08:34:00,57.7,50.9,30.08,NNE,33,0.2,1.1,78,0.00,OVC,,0.00,364.0,WeatherDisplay:10.37,2013-11-17 16:34:00,
2013-11-17 08:39:00,58.4,52.9,30.08,NNE,33,1.1,2.3,82,0.00,OVC,,0.00,374.0,WeatherDisplay:10.37,2013-11-17 16:39:00,
2013-11-17 08:44:00,58.6,49.6,30.08,East,84,1.7,2.3,72,0.00,OVC,,0.00,388.0,WeatherDisplay:10.37,2013-11-17 16:44:00,
2013-11-17 08:49:00,58.5,49.5,30.08,NE,47,1.4,3.5,72,0.00,OVC,,0.00,403.0,WeatherDisplay:10.37,2013-11-17 16:49:00,
2013-11-17 08:54:00,58.6,50.0,30.08,NE,47,1.7,2.3,73,0.00,OVC,,0.00,417.0,WeatherDisplay:10.37,2013-11-17 16:54:00,
2013-11-17 08:59:00,59.0,50.4,30.08,ENE,59,1.5,2.3,73,0.00,OVC,,0.00,429.0,WeatherDisplay:10.37,2013-11-17 16:59:00,
2013-11-17 09:04:00,59.1,48.9,30.08,ENE,67,0.0,0.0,69,0.00,OVC,,0.00,441.0,WeatherDisplay:10.37,2013-11-17 17:04:00,
2013-11-17 09:09:00,59.3,49.9,30.08,ENE,67,1.6,2.3,71,0.00,OVC,,0.00,454.0,WeatherDisplay:10.37,2013-11-17 17:09:00,
2013-11-17 09:14:00,59.4,50.0,30.09,ENE,58,0.2,2.3,71,0.00,OVC,,0.00,466.0,WeatherDisplay:10.37,2013-11-17 17:14:00,
2013-11-17 09:20:00,59.7,48.7,30.09,ENE,62,0.0,1.1,67,0.00,OVC,,0.00,478.0,WeatherDisplay:10.37,2013-11-17 17:20:00,
2013-11-17 09:25:00,60.1,49.1,30.09,SSE,147,0.0,0.0,67,0.00,OVC,,0.00,489.0,WeatherDisplay:10.37,2013-11-17 17:25:00,
2013-11-17 09:30:00,60.4,49.4,30.09,ENE,78,0.0,1.1,67,0.00,OVC,,0.00,501.0,WeatherDisplay:10.37,2013-11-17 17:30:00,
2013-11-17 09:35:00,60.8,49.8,30.09,SSW,195,0.0,1.0,67,0.00,OVC,,0.00,508.0,WeatherDisplay:10.37,2013-11-17 17:35:00,
2013-11-17 09:40:00,61.5,49.2,30.09,East,88,1.0,1.1,64,0.00,OVC,,0.00,520.0,WeatherDisplay:10.37,2013-11-17 17:40:00,
2013-11-17 09:45:00,61.6,49.3,30.09,East,89,1.0,3.0,64,0.00,OVC,,0.00,527.0,WeatherDisplay:10.37,2013-11-17 17:45:00,
2013-11-17 09:50:00,61.6,49.3,30.09,NNE,16,1.8,3.5,64,0.00,OVC,,0.00,538.0,WeatherDisplay:10.37,2013-11-17 17:50:00,
2013-11-17 09:55:00,61.6,49.7,30.09,ESE,122,2.5,3.5,65,0.00,OVC,,0.00,545.0,WeatherDisplay:10.37,2013-11-17 17:55:00,
2013-11-17 10:00:00,61.3,49.5,30.09,ENE,73,1.0,4.0,65,0.00,OVC,,0.00,554.0,WeatherDisplay:10.37,2013-11-17 18:00:00,
2013-11-17 10:05:00,61.1,48.8,30.09,SSE,167,0.7,1.1,64,0.00,OVC,,0.00,563.0,WeatherDisplay:10.37,2013-11-17 18:05:00,
2013-11-17 10:10:00,61.5,49.6,30.09,ENE,60,2.0,3.0,65,0.00,OVC,,0.00,571.0,WeatherDisplay:10.37,2013-11-17 18:10:00,
2013-11-17 10:15:00,61.8,49.9,30.09,East,88,1.0,4.0,65,0.00,OVC,,0.00,580.0,WeatherDisplay:10.37,2013-11-17 18:15:00,
2013-11-17 10:20:00,62.3,50.4,30.09,WNW,290,1.3,1.3,65,0.00,OVC,,0.00,587.0,WeatherDisplay:10.37,2013-11-17 18:20:00,
2013-11-17 10:25:00,62.7,49.9,30.10,SSE,163,0.2,1.1,63,0.00,OVC,,0.00,591.0,WeatherDisplay:10.37,2013-11-17 18:25:00,
2013-11-17 10:30:00,62.8,49.6,30.10,West,262,0.4,1.1,62,0.00,OVC,,0.00,594.0,WeatherDisplay:10.37,2013-11-17 18:30:00,
2013-11-17 10:35:00,62.7,48.6,30.09,West,261,0.0,3.0,60,0.00,OVC,,0.00,598.0,WeatherDisplay:10.37,2013-11-17 18:35:00,
2013-11-17 10:40:00,63.0,50.2,30.09,SE,133,0.8,2.3,63,0.00,OVC,,0.00,605.0,WeatherDisplay:10.37,2013-11-17 18:40:00,
2013-11-17 10:45:00,63.1,49.0,30.09,SSW,202,1.0,3.0,60,0.00,OVC,,0.00,608.0,WeatherDisplay:10.37,2013-11-17 18:45:00,
2013-11-17 10:50:00,63.7,50.4,30.09,WSW,253,2.5,2.5,62,0.00,OVC,,0.00,603.0,WeatherDisplay:10.37,2013-11-17 18:50:00,
2013-11-17 10:55:00,64.1,49.9,30.09,WSW,253,1.0,4.0,60,0.00,OVC,,0.00,612.0,WeatherDisplay:10.37,2013-11-17 18:55:00,
2013-11-17 11:00:00,64.2,50.0,30.09,WSW,253,1.7,3.5,60,0.00,OVC,,0.00,619.0,WeatherDisplay:10.37,2013-11-17 19:00:00,
2013-11-17 11:05:00,64.4,49.8,30.09,SW,214,2.6,3.5,59,0.00,OVC,,0.00,617.0,WeatherDisplay:10.37,2013-11-17 19:05:00,
2013-11-17 11:10:00,64.9,50.2,30.08,SSW,210,1.4,2.3,59,0.00,OVC,,0.00,617.0,WeatherDisplay:10.37,2013-11-17 19:10:00,
2013-11-17 11:15:00,65.4,50.2,30.08,SSW,198,1.0,3.0,58,0.00,OVC,,0.00,622.0,WeatherDisplay:10.37,2013-11-17 19:15:00,
2013-11-17 11:20:00,65.7,51.0,30.08,SSW,203,3.0,3.5,59,0.00,OVC,,0.00,631.0,WeatherDisplay:10.37,2013-11-17 19:20:00,
2013-11-17 11:25:00,65.9,49.3,30.08,SW,230,0.0,6.0,55,0.00,OVC,,0.00,629.0,WeatherDisplay:10.37,2013-11-17 19:25:00,
2013-11-17 11:30:00,65.8,49.2,30.08,SW,217,0.1,1.1,55,0.00,OVC,,0.00,633.0,WeatherDisplay:10.37,2013-11-17 19:30:00,
2013-11-17 11:35:00,65.9,50.7,30.07,SW,234,2.0,5.0,58,0.00,OVC,,0.00,624.0,WeatherDisplay:10.37,2013-11-17 19:35:00,
2013-11-17 11:40:00,66.4,50.2,30.07,West,269,3.5,5.8,56,0.00,OVC,,0.00,621.0,WeatherDisplay:10.37,2013-11-17 19:40:00,
2013-11-17 11:45:00,66.8,50.6,30.07,SW,236,1.0,6.0,56,0.00,OVC,,0.00,626.0,WeatherDisplay:10.37,2013-11-17 19:45:00,
2013-11-17 11:50:00,67.3,50.1,30.06,West,260,2.0,3.5,54,0.00,OVC,,0.00,631.0,WeatherDisplay:10.37,2013-11-17 19:50:00,
2013-11-17 11:55:00,67.6,50.4,30.06,WSW,243,3.0,8.0,54,0.00,OVC,,0.00,626.0,WeatherDisplay:10.37,2013-11-17 19:55:00,
2013-11-17 12:00:00,67.9,50.1,30.06,WSW,238,1.2,3.5,53,0.00,OVC,,0.00,626.0,WeatherDisplay:10.37,2013-11-17 20:00:00,
2013-11-17 12:05:00,68.0,48.7,30.06,WSW,252,2.0,5.0,50,0.00,OVC,,0.00,626.0,WeatherDisplay:10.37,2013-11-17 20:05:00,
2013-11-17 12:10:00,66.8,49.6,30.06,WSW,250,1.2,3.5,54,0.00,OVC,,0.00,610.0,WeatherDisplay:10.37,2013-11-17 20:10:00,
2013-11-17 12:15:00,67.2,50.0,30.06,WSW,244,1.0,5.0,54,0.00,OVC,,0.00,613.0,WeatherDisplay:10.37,2013-11-17 20:15:00,
2013-11-17 12:20:00,67.6,48.3,30.05,WSW,239,1.1,2.3,50,0.00,OVC,,0.00,610.0,WeatherDisplay:10.37,2013-11-17 20:20:00,
2013-11-17 12:25:00,67.2,48.5,30.05,WSW,253,2.0,6.0,51,0.00,OVC,,0.00,606.0,WeatherDisplay:10.37,2013-11-17 20:25:00,
2013-11-17 12:30:00,67.5,49.8,30.05,WSW,239,1.7,2.3,53,0.00,OVC,,0.00,598.0,WeatherDisplay:10.37,2013-11-17 20:30:00,
2013-11-17 12:35:00,67.8,49.5,30.05,SW,217,1.0,4.0,52,0.00,OVC,,0.00,594.0,WeatherDisplay:10.37,2013-11-17 20:35:00,
2013-11-17 12:40:00,67.9,47.5,30.05,WNW,291,0.2,2.3,48,0.00,OVC,,0.00,591.0,WeatherDisplay:10.37,2013-11-17 20:40:00,
2013-11-17 12:45:00,67.9,49.1,30.05,SSW,205,0.2,1.1,51,0.00,OVC,,0.00,577.0,WeatherDisplay:10.37,2013-11-17 20:45:00,
2013-11-17 12:50:00,68.3,49.5,30.05,West,278,2.6,4.6,51,0.00,OVC,,0.00,577.0,WeatherDisplay:10.37,2013-11-17 20:50:00,
2013-11-17 12:55:00,68.8,48.3,30.05,WSW,258,0.5,2.3,48,0.00,OVC,,0.00,563.0,WeatherDisplay:10.37,2013-11-17 20:55:00,
2013-11-17 13:00:00,69.0,49.0,30.04,SSW,208,1.9,4.0,49,0.00,OVC,,0.00,559.0,WeatherDisplay:10.37,2013-11-17 21:00:00,
2013-11-17 13:05:00,69.3,48.2,30.04,SW,230,3.3,5.8,47,0.00,OVC,,0.00,550.0,WeatherDisplay:10.37,2013-11-17 21:05:00,
2013-11-17 13:10:00,69.2,48.7,30.04,West,264,3.1,4.6,48,0.00,OVC,,0.00,543.0,WeatherDisplay:10.37,2013-11-17 21:10:00,
2013-11-17 13:15:00,68.3,47.3,30.04,SW,216,2.4,3.5,47,0.00,OVC,,0.00,534.0,WeatherDisplay:10.37,2013-11-17 21:15:00,
2013-11-17 13:20:00,68.5,48.0,30.04,SW,215,3.6,5.8,48,0.00,OVC,,0.00,527.0,WeatherDisplay:10.37,2013-11-17 21:20:00,
2013-11-17 13:25:00,69.0,47.9,30.04,SW,234,3.4,4.6,47,0.00,OVC,,0.00,517.0,WeatherDisplay:10.37,2013-11-17 21:25:00,
2013-11-17 13:30:00,69.1,47.4,30.04,WSW,255,3.0,7.0,46,0.00,OVC,,0.00,510.0,WeatherDisplay:10.37,2013-11-17 21:30:00,
2013-11-17 13:35:00,69.3,47.0,30.04,West,274,2.4,4.6,45,0.00,OVC,,0.00,499.0,WeatherDisplay:10.37,2013-11-17 21:35:00,
2013-11-17 13:40:00,69.3,47.6,30.03,SW,218,2.7,3.5,46,0.00,OVC,,0.00,487.0,WeatherDisplay:10.37,2013-11-17 21:40:00,
2013-11-17 13:45:00,69.4,47.7,30.03,West,266,3.6,4.6,46,0.00,OVC,,0.00,478.0,WeatherDisplay:10.37,2013-11-17 21:45:00,
2013-11-17 13:50:00,69.6,47.9,30.03,SW,218,2.9,4.6,46,0.00,OVC,,0.00,468.0,WeatherDisplay:10.37,2013-11-17 21:50:00,
2013-11-17 13:55:00,69.7,47.4,30.03,SW,225,2.1,5.8,45,0.00,OVC,,0.00,455.0,WeatherDisplay:10.37,2013-11-17 21:55:00,
2013-11-17 14:00:00,69.6,46.7,30.03,WSW,253,2.7,3.5,44,0.00,OVC,,0.00,445.0,WeatherDisplay:10.37,2013-11-17 22:00:00,
2013-11-17 14:05:00,69.2,46.9,30.03,West,262,1.6,2.3,45,0.00,OVC,,0.00,434.0,WeatherDisplay:10.37,2013-11-17 22:05:00,
2013-11-17 14:10:00,69.4,47.1,30.03,WSW,245,3.6,6.9,45,0.00,OVC,,0.00,417.0,WeatherDisplay:10.37,2013-11-17 22:10:00,
2013-11-17 14:15:00,69.2,46.4,30.03,WSW,257,0.6,3.5,44,0.00,OVC,,0.00,406.0,WeatherDisplay:10.37,2013-11-17 22:15:00,
2013-11-17 14:20:00,69.3,47.0,30.03,WSW,249,3.3,8.0,45,0.00,OVC,,0.00,390.0,WeatherDisplay:10.37,2013-11-17 22:20:00,
2013-11-17 14:25:00,69.3,46.4,30.03,WSW,241,1.6,3.0,44,0.00,OVC,,0.00,380.0,WeatherDisplay:10.37,2013-11-17 22:25:00,
2013-11-17 14:30:00,69.4,47.1,30.03,SSW,203,2.3,4.6,45,0.00,OVC,,0.00,366.0,WeatherDisplay:10.37,2013-11-17 22:30:00,
2013-11-17 14:35:00,69.6,47.3,30.03,SSW,195,2.4,3.5,45,0.00,OVC,,0.00,352.0,WeatherDisplay:10.37,2013-11-17 22:35:00,
2013-11-17 14:40:00,69.9,47.0,30.03,WNW,287,0.9,3.5,44,0.00,OVC,,0.00,338.0,WeatherDisplay:10.37,2013-11-17 22:40:00,
2013-11-17 14:45:00,69.4,47.1,30.03,SW,233,1.5,3.5,45,0.00,OVC,,0.00,322.0,WeatherDisplay:10.37,2013-11-17 22:45:00,
2013-11-17 14:50:00,69.5,47.2,30.03,SSW,208,1.5,3.5,45,0.00,OVC,,0.00,306.0,WeatherDisplay:10.37,2013-11-17 22:50:00,
2013-11-17 14:55:00,69.8,46.3,30.03,West,263,2.9,3.5,43,0.00,OVC,,0.00,292.0,WeatherDisplay:10.37,2013-11-17 22:55:00,
2013-11-17 15:00:00,69.6,46.7,30.03,SW,232,3.4,4.6,44,0.00,CLR,,0.00,274.0,WeatherDisplay:10.37,2013-11-17 23:00:00,
2013-11-17 15:06:00,69.3,46.4,30.03,SSW,211,1.7,4.6,44,0.00,CLR,,0.00,258.0,WeatherDisplay:10.37,2013-11-17 23:06:00,
2013-11-17 15:11:00,69.0,46.2,30.03,WSW,242,3.1,6.9,44,0.00,CLR,,0.00,244.0,WeatherDisplay:10.37,2013-11-17 23:11:00,
2013-11-17 15:16:00,68.9,46.1,30.02,West,259,2.7,4.6,44,0.00,CLR,,0.00,221.0,WeatherDisplay:10.37,2013-11-17 23:16:00,
2013-11-17 15:21:00,68.8,46.0,30.02,SW,228,0.9,2.3,44,0.00,CLR,,0.00,206.0,WeatherDisplay:10.37,2013-11-17 23:21:00,
2013-11-17 15:26:00,69.0,46.8,30.02,WSW,237,1.5,3.5,45,0.00,CLR,,0.00,185.0,WeatherDisplay:10.37,2013-11-17 23:26:00,
2013-11-17 15:31:00,68.8,46.6,30.02,WSW,250,0.1,1.1,45,0.00,CLR,,0.00,163.0,WeatherDisplay:10.37,2013-11-17 23:31:00,
2013-11-17 15:36:00,68.6,46.4,30.03,West,266,0.7,3.5,45,0.00,CLR,,0.00,144.0,WeatherDisplay:10.37,2013-11-17 23:36:00,
2013-11-17 15:41:00,68.4,46.2,30.03,SW,224,2.4,3.5,45,0.00,CLR,,0.00,127.0,WeatherDisplay:10.37,2013-11-17 23:41:00,
2013-11-17 15:46:00,67.9,45.8,30.03,WSW,247,0.6,2.3,45,0.00,CLR,,0.00,72.0,WeatherDisplay:10.37,2013-11-17 23:46:00,
2013-11-17 15:51:00,67.3,45.2,30.03,West,267,1.6,3.5,45,0.00,CLR,,0.00,63.0,WeatherDisplay:10.37,2013-11-17 23:51:00,
2013-11-17 15:56:00,66.8,45.3,30.03,West,267,0.0,1.1,46,0.00,CLR,,0.00,62.0,WeatherDisplay:10.37,2013-11-17 23:56:00,
2013-11-17 16:01:00,66.5,45.1,30.03,WNW,288,0.2,1.1,46,0.00,CLR,,0.00,40.0,WeatherDisplay:10.37,2013-11-18 00:01:00,
2013-11-17 16:06:00,66.1,45.3,30.03,SW,222,0.9,2.3,47,0.00,CLR,,0.00,33.0,WeatherDisplay:10.37,2013-11-18 00:06:00,
2013-11-17 16:11:00,65.7,44.9,30.02,WSW,257,1.3,3.5,47,0.00,CLR,,0.00,28.0,WeatherDisplay:10.37,2013-11-18 00:11:00,
2013-11-17 16:16:00,65.3,44.5,30.03,WSW,251,0.6,2.0,47,0.00,CLR,,0.00,23.0,WeatherDisplay:10.37,2013-11-18 00:16:00,
2013-11-17 16:21:00,65.1,44.9,30.03,West,260,0.2,1.1,48,0.00,CLR,,0.00,19.0,WeatherDisplay:10.37,2013-11-18 00:21:00,
2013-11-17 16:26:00,64.9,45.3,30.03,West,260,0.0,0.0,49,0.00,CLR,,0.00,16.0,WeatherDisplay:10.37,2013-11-18 00:26:00,
2013-11-17 16:31:00,64.7,45.1,30.03,West,260,0.0,0.0,49,0.00,CLR,,0.00,12.0,WeatherDisplay:10.37,2013-11-18 00:31:00,
2013-11-17 16:36:00,64.4,45.3,30.03,West,260,0.0,1.1,50,0.00,CLR,,0.00,9.0,WeatherDisplay:10.37,2013-11-18 00:36:00,
2013-11-17 16:41:00,64.0,45.5,30.03,West,260,0.0,0.0,51,0.00,CLR,,0.00,5.0,WeatherDisplay:10.37,2013-11-18 00:41:00,
2013-11-17 16:46:00,63.6,45.1,30.04,West,273,0.0,1.1,51,0.00,CLR,,0.00,0.0,WeatherDisplay:10.37,2013-11-18 00:46:00,
2013-11-17 16:51:00,63.2,45.3,30.04,West,273,0.5,1.1,52,0.00,CLR,,0.00,0.0,WeatherDisplay:10.37,2013-11-18 00:51:00,
2013-11-17 16:56:00,62.8,46.4,30.04,SW,222,3.3,4.6,55,0.00,CLR,,0.00,0.0,WeatherDisplay:10.37,2013-11-18 00:56:00,
2013-11-17 17:01:00,62.2,47.7,30.05,West,280,5.2,6.9,59,0.00,CLR,,0.00,0.0,WeatherDisplay:10.37,2013-11-18 01:01:00,
2013-11-17 17:06:00,61.5,47.9,30.05,SW,215,5.5,6.9,61,0.00,CLR,,0.00,0.0,WeatherDisplay:10.37,2013-11-18 01:06:00,
2013-11-17 17:11:00,60.8,48.1,30.05,West,268,5.0,6.9,63,0.00,CLR,,0.00,0.0,WeatherDisplay:10.37,2013-11-18 01:11:00,
2013-11-17 17:16:00,60.4,48.6,30.06,WSW,244,4.2,5.8,65,0.00,CLR,,0.00,0.0,WeatherDisplay:10.37,2013-11-18 01:16:00,
2013-11-17 17:21:00,60.0,48.6,30.06,West,274,4.0,8.1,66,0.00,CLR,,0.00,0.0,WeatherDisplay:10.37,2013-11-18 01:21:00,
2013-11-17 17:26:00,59.6,48.2,30.06,West,264,3.3,5.8,66,0.00,CLR,,0.00,0.0,WeatherDisplay:10.37,2013-11-18 01:26:00,
2013-11-17 17:31:00,59.2,48.2,30.06,SW,234,4.1,5.8,67,0.00,CLR,,0.00,0.0,WeatherDisplay:10.37,2013-11-18 01:31:00,
2013-11-17 17:36:00,58.8,48.3,30.06,SW,229,3.2,4.0,68,0.00,CLR,,0.00,0.0,WeatherDisplay:10.37,2013-11-18 01:36:00,
2013-11-17 17:41:00,58.5,48.4,30.06,WNW,284,4.4,5.8,69,0.00,CLR,,0.00,0.0,WeatherDisplay:10.37,2013-11-18 01:41:00,
2013-11-17 17:46:00,58.2,48.5,30.06,WNW,289,4.3,6.0,70,0.00,CLR,,0.00,0.0,WeatherDisplay:10.37,2013-11-18 01:46:00,
2013-11-17 17:51:00,57.9,48.6,30.07,West,271,5.1,6.9,71,0.00,CLR,,0.00,0.0,WeatherDisplay:10.37,2013-11-18 01:51:00,
2013-11-17 17:56:00,57.7,48.4,30.07,WSW,251,3.4,4.6,71,0.00,CLR,,0.00,0.0,WeatherDisplay:10.37,2013-11-18 01:56:00,
2013-11-17 18:01:00,57.4,48.4,30.07,WSW,252,5.2,6.9,72,0.00,CLR,,0.00,0.0,WeatherDisplay:10.37,2013-11-18 02:01:00,
2013-11-17 18:06:00,57.2,48.6,30.07,West,270,5.8,5.8,73,0.00,CLR,,0.00,0.0,WeatherDisplay:10.37,2013-11-18 02:06:00,
2013-11-17 18:11:00,56.9,48.3,30.07,WSW,251,4.5,5.8,73,0.00,CLR,,0.00,0.0,WeatherDisplay:10.37,2013-11-18 02:11:00,
2013-11-17 18:16:00,56.7,48.5,30.07,WNW,284,3.4,5.8,74,0.00,CLR,,0.00,0.0,WeatherDisplay:10.37,2013-11-18 02:16:00,
2013-11-17 18:21:00,56.4,48.2,30.08,WSW,253,4.5,4.6,74,0.00,CLR,,0.00,0.0,WeatherDisplay:10.37,2013-11-18 02:21:00,
2013-11-17 18:26:00,56.2,48.4,30.08,West,264,4.0,4.6,75,0.00,CLR,,0.00,0.0,WeatherDisplay:10.37,2013-11-18 02:26:00,
2013-11-17 18:31:00,55.9,48.1,30.08,WSW,254,3.9,5.8,75,0.00,CLR,,0.00,0.0,WeatherDisplay:10.37,2013-11-18 02:31:00,
2013-11-17 18:36:00,55.8,48.0,30.08,WNW,290,1.9,4.0,75,0.00,CLR,,0.00,0.0,WeatherDisplay:10.37,2013-11-18 02:36:00,
2013-11-17 18:41:00,55.7,47.9,30.08,SW,220,0.2,3.5,75,0.00,CLR,,0.00,0.0,WeatherDisplay:10.37,2013-11-18 02:41:00,
2013-11-17 18:46:00,55.5,48.1,30.08,SW,226,1.1,3.5,76,0.00,CLR,,0.00,0.0,WeatherDisplay:10.37,2013-11-18 02:46:00,
2013-11-17 18:51:00,55.3,47.9,30.09,SSW,197,1.2,3.5,76,0.00,CLR,,0.00,0.0,WeatherDisplay:10.37,2013-11-18 02:51:00,
2013-11-17 18:56:00,55.2,47.8,30.09,SSW,207,0.9,3.5,76,0.00,CLR,,0.00,0.0,WeatherDisplay:10.37,2013-11-18 02:56:00,
2013-11-17 19:01:00,55.1,48.0,30.09,West,266,0.4,2.3,77,0.00,CLR,,0.00,0.0,WeatherDisplay:10.37,2013-11-18 03:01:00,
2013-11-17 19:07:00,55.0,47.9,30.09,NW,313,0.0,0.0,77,0.00,CLR,,0.00,0.0,WeatherDisplay:10.37,2013-11-18 03:07:00,
2013-11-17 19:12:00,54.7,47.6,30.09,NW,313,0.0,0.0,77,0.00,CLR,,0.00,0.0,WeatherDisplay:10.37,2013-11-18 03:12:00,
2013-11-17 19:17:00,54.6,47.9,30.09,WNW,299,0.1,2.3,78,0.00,CLR,,0.00,0.0,WeatherDisplay:10.37,2013-11-18 03:17:00,
2013-11-17 19:22:00,54.4,47.7,30.09,NW,314,0.0,0.0,78,0.00,CLR,,0.00,0.0,WeatherDisplay:10.37,2013-11-18 03:22:00,
2013-11-17 19:27:00,54.2,47.8,30.09,NNW,334,0.2,1.1,79,0.00,CLR,,0.00,0.0,WeatherDisplay:10.37,2013-11-18 03:27:00,
2013-11-17 19:32:00,54.0,47.6,30.09,NNW,334,0.0,2.3,79,0.00,CLR,,0.00,0.0,WeatherDisplay:10.37,2013-11-18 03:32:00,
2013-11-17 19:37:00,53.8,47.4,30.09,NNW,334,0.0,0.0,79,0.00,CLR,,0.00,0.0,WeatherDisplay:10.37,2013-11-18 03:37:00,
2013-11-17 19:42:00,53.6,47.6,30.09,NNW,334,0.4,1.1,80,0.00,CLR,,0.00,0.0,WeatherDisplay:10.37,2013-11-18 03:42:00,
2013-11-17 19:47:00,53.5,47.5,30.09,SSW,210,0.0,1.1,80,0.00,CLR,,0.00,0.0,WeatherDisplay:10.37,2013-11-18 03:47:00,
2013-11-17 19:52:00,53.3,47.3,30.10,WSW,240,0.2,2.3,80,0.00,CLR,,0.00,0.0,WeatherDisplay:10.37,2013-11-18 03:52:00,
2013-11-17 19:57:00,53.2,47.2,30.10,SSW,195,0.9,2.3,80,0.00,CLR,,0.00,0.0,WeatherDisplay:10.37,2013-11-18 03:57:00,
2013-11-17 20:02:00,53.2,47.2,30.10,SSW,194,0.2,1.1,80,0.00,CLR,,0.00,0.0,WeatherDisplay:10.37,2013-11-18 04:02:00,
2013-11-17 20:07:00,53.1,47.4,30.10,SSW,194,0.0,0.0,81,0.00,CLR,,0.00,0.0,WeatherDisplay:10.37,2013-11-18 04:07:00,
2013-11-17 20:12:00,53.0,47.3,30.10,SSW,194,0.2,1.1,81,0.00,CLR,,0.00,0.0,WeatherDisplay:10.37,2013-11-18 04:12:00,
2013-11-17 20:17:00,52.9,47.2,30.11,West,274,0.0,1.1,81,0.00,CLR,,0.00,0.0,WeatherDisplay:10.37,2013-11-18 04:17:00,
2013-11-17 20:22:00,52.8,47.1,30.11,West,273,0.1,1.1,81,0.00,CLR,,0.00,0.0,WeatherDisplay:10.37,2013-11-18 04:22:00,
2013-11-17 20:27:00,52.7,47.0,30.11,West,273,0.0,0.0,81,0.00,CLR,,0.00,0.0,WeatherDisplay:10.37,2013-11-18 04:27:00,
2013-11-17 20:32:00,52.6,47.3,30.11,West,273,0.0,0.0,82,0.00,CLR,,0.00,0.0,WeatherDisplay:10.37,2013-11-18 04:32:00,
2013-11-17 20:37:00,52.5,47.2,30.11,West,273,0.0,0.0,82,0.00,CLR,,0.00,0.0,WeatherDisplay:10.37,2013-11-18 04:37:00,
2013-11-17 20:42:00,52.4,47.1,30.11,West,273,0.0,0.0,82,0.00,CLR,,0.00,0.0,WeatherDisplay:10.37,2013-11-18 04:42:00,
2013-11-17 20:47:00,52.2,46.9,30.11,West,273,0.0,0.0,82,0.00,CLR,,0.00,0.0,WeatherDisplay:10.37,2013-11-18 04:47:00,
2013-11-17 20:52:00,51.9,46.6,30.12,West,273,0.0,0.0,82,0.00,CLR,,0.00,0.0,WeatherDisplay:10.37,2013-11-18 04:52:00,
2013-11-17 20:57:00,51.7,46.4,30.12,West,273,0.0,0.0,82,0.00,CLR,,0.00,0.0,WeatherDisplay:10.37,2013-11-18 04:57:00,
2013-11-17 21:01:00,51.6,46.6,30.12,West,273,0.0,0.0,83,0.00,CLR,,0.00,0.0,WeatherDisplay:10.37,2013-11-18 05:01:00,
2013-11-17 21:02:00,51.6,46.6,30.12,West,273,0.0,0.0,83,0.00,CLR,,0.00,0.0,WeatherDisplay:10.37,2013-11-18 05:02:00,
2013-11-17 21:07:00,51.4,46.4,30.12,West,273,0.0,0.0,83,0.00,CLR,,0.00,0.0,WeatherDisplay:10.37,2013-11-18 05:07:00,
2013-11-17 21:12:00,51.5,46.5,30.12,West,273,0.0,0.0,83,0.00,CLR,,0.00,0.0,WeatherDisplay:10.37,2013-11-18 05:12:00,
2013-11-17 21:17:00,51.3,46.0,30.12,West,273,0.0,0.0,82,0.00,CLR,,0.00,0.0,WeatherDisplay:10.37,2013-11-18 05:17:00,
2013-11-17 21:22:00,51.1,46.1,30.12,West,273,0.3,1.1,83,0.00,CLR,,0.00,0.0,WeatherDisplay:10.37,2013-11-18 05:22:00,
2013-11-17 21:27:00,51.2,46.5,30.12,West,273,0.2,1.1,84,0.00,CLR,,0.00,0.0,WeatherDisplay:10.37,2013-11-18 05:27:00,
2013-11-17 21:32:00,51.2,46.5,30.12,West,273,0.7,2.3,84,0.00,CLR,,0.00,0.0,WeatherDisplay:10.37,2013-11-18 05:32:00,
2013-11-17 21:37:00,51.4,47.0,30.12,West,273,0.4,2.3,85,0.00,CLR,,0.00,0.0,WeatherDisplay:10.37,2013-11-18 05:37:00,
2013-11-17 21:42:00,51.5,46.8,30.12,West,273,0.1,1.1,84,0.00,CLR,,0.00,0.0,WeatherDisplay:10.37,2013-11-18 05:42:00,
2013-11-17 21:47:00,51.4,46.7,30.12,West,273,0.0,0.0,84,0.00,CLR,,0.00,0.0,WeatherDisplay:10.37,2013-11-18 05:47:00,
2013-11-17 21:52:00,51.2,46.2,30.12,West,273,0.0,0.0,83,0.00,CLR,,0.00,0.0,WeatherDisplay:10.37,2013-11-18 05:52:00,
2013-11-17 21:57:00,50.8,45.5,30.12,West,273,0.5,1.1,82,0.00,CLR,,0.00,0.0,WeatherDisplay:10.37,2013-11-18 05:57:00,
2013-11-17 22:02:00,50.3,45.0,30.13,West,273,0.0,0.0,82,0.00,CLR,,0.00,0.0,WeatherDisplay:10.37,2013-11-18 06:02:00,
2013-11-17 22:07:00,50.0,45.4,30.13,West,273,0.0,0.0,84,0.00,CLR,,0.00,0.0,WeatherDisplay:10.37,2013-11-18 06:07:00,
2013-11-17 22:12:00,49.8,45.5,30.13,West,273,0.0,0.0,85,0.00,CLR,,0.00,0.0,WeatherDisplay:10.37,2013-11-18 06:12:00,
2013-11-17 22:17:00,49.7,45.7,30.13,West,273,0.0,0.0,86,0.00,CLR,,0.00,0.0,WeatherDisplay:10.37,2013-11-18 06:17:00,
2013-11-17 22:22:00,49.7,45.7,30.13,West,273,0.0,0.0,86,0.00,CLR,,0.00,0.0,WeatherDisplay:10.37,2013-11-18 06:22:00,
2013-11-17 22:27:00,49.5,45.5,30.13,West,273,0.0,0.0,86,0.00,CLR,,0.00,0.0,WeatherDisplay:10.37,2013-11-18 06:27:00,
2013-11-17 22:32:00,49.3,45.3,30.13,West,273,0.0,0.0,86,0.00,CLR,,0.00,0.0,WeatherDisplay:10.37,2013-11-18 06:32:00,
2013-11-17 22:37:00,49.1,45.1,30.13,West,273,0.0,0.0,86,0.00,CLR,,0.00,0.0,WeatherDisplay:10.37,2013-11-18 06:37:00,
2013-11-17 22:42:00,48.8,44.5,30.13,West,273,0.0,0.0,85,0.00,CLR,,0.00,0.0,WeatherDisplay:10.37,2013-11-18 06:42:00,
2013-11-17 22:47:00,48.5,44.5,30.13,West,273,0.0,0.0,86,0.00,CLR,,0.00,0.0,WeatherDisplay:10.37,2013-11-18 06:47:00,
2013-11-17 22:52:00,48.4,44.7,30.12,West,273,0.0,0.0,87,0.00,CLR,,0.00,0.0,WeatherDisplay:10.37,2013-11-18 06:52:00,
2013-11-17 22:57:00,48.3,44.6,30.13,West,273,0.0,0.0,87,0.00,CLR,,0.00,0.0,WeatherDisplay:10.37,2013-11-18 06:57:00,
2013-11-17 23:02:00,48.2,44.5,30.12,West,273,0.0,0.0,87,0.00,CLR,,0.00,0.0,WeatherDisplay:10.37,2013-11-18 07:02:00,
2013-11-17 23:07:00,47.9,44.2,30.13,West,273,0.0,0.0,87,0.00,CLR,,0.00,0.0,WeatherDisplay:10.37,2013-11-18 07:07:00,
2013-11-17 23:12:00,47.5,43.5,30.13,West,273,0.0,0.0,86,0.00,CLR,,0.00,0.0,WeatherDisplay:10.37,2013-11-18 07:12:00,
2013-11-17 23:17:00,47.3,43.6,30.13,West,273,0.0,0.0,87,0.00,CLR,,0.00,0.0,WeatherDisplay:10.37,2013-11-18 07:17:00,
2013-11-17 23:22:00,47.1,43.4,30.13,West,273,0.0,0.0,87,0.00,CLR,,0.00,0.0,WeatherDisplay:10.37,2013-11-18 07:22:00,
2013-11-17 23:27:00,47.0,43.6,30.13,West,273,0.0,0.0,88,0.00,CLR,,0.00,0.0,WeatherDisplay:10.37,2013-11-18 07:27:00,
2013-11-17 23:32:00,46.9,43.5,30.13,West,273,0.0,0.0,88,0.00,CLR,,0.00,0.0,WeatherDisplay:10.37,2013-11-18 07:32:00,
2013-11-17 23:37:00,47.0,43.9,30.13,West,273,0.0,0.0,89,0.00,CLR,,0.00,0.0,WeatherDisplay:10.37,2013-11-18 07:37:00,
2013-11-17 23:42:00,46.9,43.8,30.13,West,273,0.0,0.0,89,0.00,CLR,,0.00,0.0,WeatherDisplay:10.37,2013-11-18 07:42:00,
2013-11-17 23:47:00,46.9,43.8,30.13,West,273,0.0,0.0,89,0.00,CLR,,0.00,0.0,WeatherDisplay:10.37,2013-11-18 07:47:00,
2013-11-17 23:52:00,46.9,43.8,30.13,West,273,0.0,0.0,89,0.00,CLR,,0.00,0.0,WeatherDisplay:10.37,2013-11-18 07:52:00,
2013-11-17 23:57:00,46.9,43.8,30.13,West,273,0.0,0.0,89,0.00,CLR,,0.00,0.0,WeatherDisplay:10.37,2013-11-18 07:57:00,